[[{"header":{"parameterUnit":"m.s-1","parameterCategory":1,"la1":30.2991,"la2":30.254,"lo1":-89.0895,"lo2":-89.0444,"dy":0.0017,"dx":0.0017,"nx":28,"ny":28,"refTime":"2024-07-22T21:00:00:Z","depth":0,"parameterNumber":2,"parameterNumberName":"U-component_of_WINDS"},"data":[0,0,0,0,0,0,0,0,0,0,0,0,0,0,0,0,0,0,0,0,0,0,0,0,0,0,0,0,0,0,0,0,0,0,0,0,0,0,0,0,0,0,0,0,0,0,0,0,0,0,0,0,0,0,0,0,0,0,-0.3862,-0.3863,0,-0.3981,-0.3982,-0.3984,-0.4043,-0.4043,-0.4043,-0.4043,-0.4169,-0.4173,-0.4176,0,0,0,0,0,0,0,0,0,0,0,0,0,-0.3689,-0.3692,-0.3862,-0.3863,-0.3865,-0.3981,-0.3983,-0.3984,-0.4043,-0.4043,-0.4043,-0.4043,-0.4168,-0.4172,-0.4176,0,0,0,0,0,0,0,0,0,0,0,0,0,-0.3782,-0.3693,-0.3862,-0.3908,-0.3913,-0.3981,-0.3983,-0.3985,-0.4043,-0.4043,-0.4043,-0.4043,-0.4167,-0.4172,-0.4177,-0.4208,0,0,-0.4192,-0.4194,0,0,0,0,0,0,0,0,-0.3776,-0.3788,-0.39,-0.3905,-0.3911,-0.3997,-0.3968,-0.406,-0.4043,-0.3994,-0.4043,-0.4043,-0.4112,-0.4122,-0.4144,-0.4214,-0.4219,-0.4193,-0.4196,-0.4198,-0.4199,0,0,0,0,0,0,0,-0.377,-0.3783,-0.3909,-0.3901,-0.3908,-0.3924,-0.3937,-0.3986,-0.4052,-0.3998,-0.4003,-0.4016,-0.4115,-0.4139,-0.4148,-0.4221,-0.4193,-0.4197,-0.42,-0.4202,-0.4322,-0.4322,0,0,0,0,0,0,-0.3755,-0.3778,-0.3906,-0.3913,-0.3842,-0.3927,-0.3942,-0.397,-0.4051,-0.4064,-0.4016,-0.4018,-0.4131,-0.4142,-0.4152,-0.4194,-0.4198,-0.4203,-0.4205,-0.4322,-0.4322,-0.4322,0,0,0,0,0,0,-0.3752,-0.3766,-0.3901,-0.3846,-0.3865,-0.393,-0.3961,-0.3972,-0.3996,-0.4065,-0.4077,-0.4028,-0.4131,-0.4145,-0.4193,-0.4199,-0.4205,-0.4209,-0.4322,-0.4322,-0.4322,-0.4278,0,0,0,0,0,0,-0.3746,-0.3765,-0.3776,-0.3846,-0.3867,-0.3938,-0.3961,-0.3974,-0.4004,-0.4008,-0.4079,-0.4091,-0.4132,-0.4185,-0.4198,-0.4206,-0.4213,-0.4322,-0.4322,-0.4322,-0.4279,-0.4276,-0.4274,0,0,0,0,0,-0.374,-0.376,-0.3777,-0.3792,-0.3883,-0.3939,-0.3951,-0.3997,-0.4004,-0.4017,-0.4061,-0.4089,-0.4196,-0.419,-0.4205,-0.4215,-0.4321,-0.4322,-0.4322,-0.428,-0.4277,-0.4274,0,0,0,0,0,0,-0.3691,-0.377,-0.3789,-0.3833,-0.3878,-0.3948,-0.3966,-0.3992,-0.4038,-0.404,-0.4096,-0.4112,-0.4155,-0.419,-0.4181,-0.4249,-0.4262,-0.4265,-0.4224,-0.4222,-0.422,-0.4211,-0.4218,0,0,0,0,0,-0.3685,-0.3722,-0.379,-0.3822,-0.3843,-0.39,-0.3926,-0.3957,-0.4008,-0.4028,-0.4075,-0.4124,-0.4169,-0.4198,-0.4243,-0.4284,-0.4301,-0.4298,-0.4296,-0.4293,-0.4296,-0.432,-0.432,-0.4324,-0.4324,-0.4324,0,0,-0.3674,-0.3722,-0.3742,-0.3813,-0.3852,-0.389,-0.3917,-0.3956,-0.3985,-0.4034,-0.4082,-0.4118,-0.4177,-0.4221,-0.4243,-0.4252,-0.4298,-0.4294,-0.4291,-0.4295,-0.432,-0.432,-0.4319,-0.4324,-0.4324,-0.4324,0,0,-0.3673,-0.3712,-0.3743,-0.378,-0.3838,-0.3876,-0.3883,-0.3949,-0.3975,-0.4023,-0.4061,-0.4097,-0.4173,-0.4212,-0.4243,-0.4254,-0.4282,-0.4268,-0.4255,-0.4278,-0.4278,-0.4278,-0.4282,-0.4283,-0.427,-0.427,-0.427,0,-0.3652,-0.3709,-0.3755,-0.3792,-0.3822,-0.3866,-0.3898,-0.3933,-0.4003,-0.4024,-0.4032,-0.4127,-0.417,-0.4224,-0.4226,-0.4249,-0.426,-0.426,-0.4274,-0.4275,-0.4275,-0.428,-0.4281,-0.4268,-0.4268,-0.4268,-0.4268,0,-0.368,-0.372,-0.3737,-0.3802,-0.3834,-0.3868,-0.392,-0.3948,-0.3975,-0.4012,-0.4061,-0.4113,-0.4169,-0.4184,-0.4213,-0.4243,-0.4246,-0.4263,-0.4277,-0.4272,-0.4277,-0.4279,-0.4265,-0.4265,-0.4266,-0.4266,0,0,-0.3653,-0.3741,-0.3747,-0.3776,-0.3843,-0.3875,-0.3911,-0.3964,-0.3986,-0.4033,-0.4065,-0.4127,-0.4143,-0.4177,-0.4211,-0.423,-0.4236,-0.4246,-0.4248,-0.4242,-0.4272,-0.4258,-0.426,-0.4254,-0.4255,-0.4255,-0.4267,0,-0.3661,-0.3726,-0.3768,-0.3817,-0.3854,-0.3895,-0.3927,-0.3971,-0.4007,-0.4044,-0.4084,-0.4127,-0.4145,-0.4166,-0.4187,-0.4231,-0.4243,-0.423,-0.4286,-0.4287,-0.427,-0.4263,-0.4249,-0.4258,-0.4269,-0.427,-0.427,0,-0.368,-0.3723,-0.3775,-0.3836,-0.3853,-0.388,-0.3932,-0.3966,-0.4018,-0.4042,-0.4079,-0.4112,-0.4153,-0.4163,-0.422,-0.421,-0.4235,-0.426,-0.4261,-0.4269,-0.4278,-0.427,-0.4262,-0.4263,-0.4274,-0.4274,-0.4273,0,-0.3654,-0.3726,-0.3766,-0.379,-0.3862,-0.388,-0.3912,-0.3963,-0.3992,-0.4037,-0.4056,-0.4106,-0.4134,-0.4172,-0.4218,-0.4221,-0.4271,-0.4285,-0.4293,-0.4291,-0.4302,-0.4301,-0.4297,-0.4317,-0.4317,-0.4317,-0.4317,0,-0.3659,-0.3689,-0.3755,-0.378,-0.3815,-0.3863,-0.3896,-0.3931,-0.3976,-0.4009,-0.4049,-0.4079,-0.4138,-0.4176,-0.4212,-0.4254,-0.4266,-0.4287,-0.4297,-0.4284,-0.4281,-0.4302,-0.4302,-0.4318,-0.4318,-0.4317,-0.4317,0,-0.3637,-0.3682,-0.3729,-0.3792,-0.3809,-0.3832,-0.3888,-0.3914,-0.395,-0.3991,-0.4004,-0.4062,-0.4108,-0.4157,-0.4221,-0.4246,-0.4285,-0.4299,-0.4267,-0.4273,-0.4278,-0.4277,-0.4288,-0.4292,-0.4308,-0.4308,-0.4308,0,-0.3638,-0.3661,-0.3727,-0.3751,-0.378,-0.3819,-0.3847,-0.3896,-0.3924,-0.3984,-0.4003,-0.4051,-0.4093,-0.4165,-0.4214,-0.4263,-0.4278,-0.4278,-0.4285,-0.4271,-0.4278,-0.4276,-0.4278,-0.4276,-0.4276,-0.4275,-0.4275,0,-0.3633,-0.3654,-0.3693,-0.374,-0.3772,-0.3812,-0.3854,-0.3871,-0.3928,-0.3958,-0.4005,-0.4037,-0.41,-0.4149,-0.4203,-0.4237,-0.4265,-0.4272,-0.4277,-0.4264,-0.4245,-0.4255,-0.4261,-0.4272,-0.4272,-0.4272,-0.4273,-0.4273,-0.3623,-0.3645,-0.3694,-0.3737,-0.3772,-0.3809,-0.3836,-0.3875,-0.3914,-0.3969,-0.3995,-0.4042,-0.4092,-0.4168,-0.4201,-0.4239,-0.4247,-0.4254,-0.4256,-0.4256,-0.4253,-0.4238,-0.4249,-0.4249,-0.4249,-0.4249,-0.4249,0,-0.362,-0.3653,-0.3691,-0.3747,-0.378,-0.3802,-0.3848,-0.3875,-0.3915,-0.3959,-0.3998,-0.4051,-0.4098,-0.4149,-0.4199,-0.422,-0.4234,-0.4231,-0.423,-0.4238,-0.4242,-0.4233,-0.4218,-0.4218,-0.4218,-0.4218,-0.4218,-0.4218,-0.3623,-0.3662,-0.3688,-0.3745,-0.3779,-0.3823,-0.3848,-0.3883,-0.3918,-0.3975,-0.4013,-0.4045,-0.4092,-0.4146,-0.4189,-0.4203,-0.422,-0.4213,-0.4231,-0.4235,-0.4237,-0.424,-0.4232,-0.4216,-0.4216,-0.4223,-0.4223,-0.4223]},{"header":{"parameterUnit":"m.s-1","parameterCategory":1,"la1":30.2991,"la2":30.254,"lo1":-89.0895,"lo2":-89.0444,"dy":0.0017,"dx":0.0017,"nx":28,"ny":28,"refTime":"2024-07-22T21:00:00:Z","depth":0,"parameterNumber":3,"parameterNumberName":"V-component_of_WINDS"},"data":[0,0,0,0,0,0,0,0,0,0,0,0,0,0,0,0,0,0,0,0,0,0,0,0,0,0,0,0,0,0,0,0,0,0,0,0,0,0,0,0,0,0,0,0,0,0,0,0,0,0,0,0,0,0,0,0,0,0,-3.0262,-3.0264,0,-3.0407,-3.0408,-3.041,-3.0426,-3.0424,-3.0423,-3.0422,-3.0566,-3.0571,-3.0576,0,0,0,0,0,0,0,0,0,0,0,0,0,-2.9998,-3.0003,-3.0262,-3.0264,-3.0266,-3.0406,-3.0408,-3.041,-3.0426,-3.0424,-3.0423,-3.0421,-3.0564,-3.057,-3.0577,0,0,0,0,0,0,0,0,0,0,0,0,0,-3.0124,-3.0004,-3.0262,-3.0291,-3.0295,-3.0406,-3.0408,-3.0411,-3.0426,-3.0424,-3.0422,-3.042,-3.0562,-3.057,-3.0577,-3.0669,0,0,-3.0601,-3.0605,0,0,0,0,0,0,0,0,-3.0117,-3.0134,-3.0285,-3.0289,-3.0294,-3.0396,-3.0368,-3.0497,-3.0427,-3.0376,-3.0422,-3.0419,-3.0511,-3.0523,-3.0555,-3.0676,-3.0682,-3.0602,-3.0607,-3.061,-3.0612,0,0,0,0,0,0,0,-3.0108,-3.0128,-3.0319,-3.0287,-3.0292,-3.0296,-3.0311,-3.0393,-3.0454,-3.0381,-3.0382,-3.0399,-3.0513,-3.0547,-3.0558,-3.0684,-3.0602,-3.0609,-3.0613,-3.0616,-3.0888,-3.089,0,0,0,0,0,0,-3.0095,-3.012,-3.0315,-3.0323,-3.0198,-3.0302,-3.032,-3.0365,-3.0453,-3.0464,-3.0401,-3.0399,-3.0535,-3.0549,-3.0563,-3.0676,-3.061,-3.0617,-3.0622,-3.0885,-3.0888,-3.0891,0,0,0,0,0,0,-3.0089,-3.0112,-3.0309,-3.0223,-3.0248,-3.0309,-3.036,-3.0369,-3.0403,-3.0468,-3.0479,-3.0425,-3.0534,-3.0552,-3.0643,-3.0681,-3.0621,-3.0628,-3.0882,-3.0886,-3.089,-3.0902,0,0,0,0,0,0,-3.0081,-3.011,-3.0145,-3.0223,-3.0252,-3.0387,-3.0363,-3.0374,-3.0417,-3.0417,-3.0493,-3.0504,-3.0533,-3.0631,-3.0651,-3.0691,-3.0634,-3.0879,-3.0884,-3.0889,-3.0899,-3.0906,-3.0912,0,0,0,0,0,-3.0072,-3.0142,-3.0147,-3.017,-3.0298,-3.0389,-3.0405,-3.0439,-3.042,-3.0456,-3.0498,-3.0502,-3.0674,-3.064,-3.0662,-3.0705,-3.0877,-3.0883,-3.0888,-3.0895,-3.0904,-3.0912,0,0,0,0,0,0,-3.0065,-3.0153,-3.0159,-3.0257,-3.0316,-3.0391,-3.0438,-3.0447,-3.0511,-3.0507,-3.0545,-3.0562,-3.0651,-3.0688,-3.0648,-3.0799,-3.0774,-3.0784,-3.0772,-3.0781,-3.0787,-3.0776,-3.064,0,0,0,0,0,-3.0076,-3.0143,-3.0215,-3.0294,-3.0324,-3.0376,-3.0416,-3.0437,-3.0499,-3.0523,-3.0572,-3.0631,-3.0698,-3.0742,-3.0807,-3.0905,-3.0921,-3.0945,-3.0952,-3.0957,-3.0965,-3.102,-3.1031,-3.091,-3.091,-3.091,0,0,-3.0097,-3.0153,-3.0192,-3.0295,-3.0342,-3.041,-3.0396,-3.0468,-3.0519,-3.0534,-3.0622,-3.066,-3.0729,-3.0823,-3.0867,-3.0856,-3.1003,-3.0965,-3.0968,-3.0974,-3.1027,-3.1038,-3.1048,-3.0914,-3.0913,-3.0912,0,0,-3.017,-3.0219,-3.0291,-3.034,-3.0413,-3.0448,-3.0465,-3.054,-3.0567,-3.0657,-3.067,-3.073,-3.0845,-3.0894,-3.0933,-3.1027,-3.1033,-3.1048,-3.1083,-3.1135,-3.1145,-3.1153,-3.1186,-3.1198,-3.1056,-3.1056,-3.1056,0,-3.0186,-3.029,-3.0326,-3.0399,-3.0443,-3.0462,-3.0535,-3.058,-3.067,-3.07,-3.0687,-3.0834,-3.0881,-3.0987,-3.101,-3.1042,-3.1062,-3.1038,-3.1141,-3.115,-3.1158,-3.119,-3.1202,-3.1057,-3.1057,-3.1057,-3.1057,0,-3.0307,-3.0378,-3.0428,-3.0516,-3.0566,-3.0638,-3.0685,-3.0732,-3.0749,-3.0785,-3.0876,-3.0934,-3.1012,-3.1039,-3.1056,-3.1148,-3.1139,-3.1133,-3.1108,-3.117,-3.1201,-3.1214,-3.1059,-3.1059,-3.1058,-3.1058,0,0,-3.0377,-3.0487,-3.0504,-3.0545,-3.0628,-3.0684,-3.0757,-3.0835,-3.0874,-3.0937,-3.0998,-3.1097,-3.1092,-3.1137,-3.116,-3.1206,-3.1277,-3.1195,-3.1197,-3.1207,-3.1382,-3.1385,-3.1399,-3.1282,-3.1284,-3.1286,-3.1376,0,-3.0459,-3.0591,-3.0627,-3.0738,-3.0805,-3.0825,-3.0889,-3.0946,-3.0982,-3.1044,-3.1083,-3.1152,-3.1141,-3.1169,-3.1216,-3.1258,-3.1312,-3.1253,-3.1339,-3.1341,-3.132,-3.1415,-3.1418,-3.15,-3.1388,-3.139,-3.1392,0,-3.0572,-3.0638,-3.0756,-3.0832,-3.0862,-3.0918,-3.0993,-3.1052,-3.1118,-3.1141,-3.1193,-3.1212,-3.1288,-3.1261,-3.1367,-3.1325,-3.1363,-3.1389,-3.1393,-3.1401,-3.1369,-3.1424,-3.1526,-3.1538,-3.1411,-3.1409,-3.1408,0,-3.061,-3.0729,-3.0816,-3.085,-3.0941,-3.0981,-3.102,-3.1084,-3.1129,-3.1195,-3.1224,-3.1297,-3.1337,-3.1393,-3.1431,-3.1407,-3.1533,-3.1509,-3.1554,-3.1553,-3.1578,-3.1575,-3.1686,-3.1604,-3.1604,-3.1604,-3.1604,0,-3.0697,-3.0768,-3.0835,-3.0887,-3.0968,-3.1009,-3.1088,-3.1128,-3.1185,-3.1246,-3.1268,-3.1324,-3.1372,-3.1434,-3.1465,-3.1548,-3.1566,-3.1586,-3.1592,-3.1583,-3.158,-3.1607,-3.1602,-3.1607,-3.1606,-3.1606,-3.1605,0,-3.0753,-3.08,-3.0895,-3.0975,-3.0996,-3.1052,-3.112,-3.1172,-3.121,-3.1286,-3.1307,-3.1365,-3.1441,-3.1485,-3.1579,-3.16,-3.1691,-3.1696,-3.1669,-3.1672,-3.1714,-3.1709,-3.1845,-3.1865,-3.177,-3.1771,-3.1772,0,-3.0804,-3.086,-3.0946,-3.0989,-3.1029,-3.1098,-3.1145,-3.1188,-3.1235,-3.1316,-3.1358,-3.1435,-3.1499,-3.1618,-3.1669,-3.1741,-3.1747,-3.179,-3.1758,-3.1747,-3.1747,-3.1743,-3.1748,-3.1795,-3.1796,-3.1796,-3.1797,0,-3.089,-3.0911,-3.0978,-3.1054,-3.111,-3.1171,-3.1232,-3.1266,-3.1319,-3.1371,-3.145,-3.1499,-3.1597,-3.1673,-3.175,-3.179,-3.1802,-3.1807,-3.1821,-3.1811,-3.1793,-3.1802,-3.1683,-3.1803,-3.1802,-3.1802,-3.1802,-3.1801,-3.0944,-3.0995,-3.1064,-3.1138,-3.1189,-3.1246,-3.1299,-3.1345,-3.1411,-3.1495,-3.1517,-3.1598,-3.1664,-3.177,-3.1812,-3.1876,-3.1869,-3.1889,-3.1894,-3.1898,-3.1899,-3.1784,-3.189,-3.189,-3.189,-3.189,-3.189,0,-3.1031,-3.1077,-3.1145,-3.123,-3.1289,-3.1298,-3.1366,-3.1414,-3.1487,-3.1548,-3.1611,-3.1701,-3.1775,-3.1833,-3.1909,-3.1949,-3.1957,-3.1968,-3.1964,-3.1974,-3.1902,-3.1881,-3.1961,-3.1961,-3.1961,-3.1961,-3.1961,-3.196,-3.1082,-3.1169,-3.1198,-3.131,-3.1356,-3.1437,-3.1476,-3.1529,-3.1578,-3.1678,-3.174,-3.1778,-3.1838,-3.1919,-3.1988,-3.2003,-3.2029,-3.2039,-3.2055,-3.1986,-3.1978,-3.1971,-3.1952,-3.2045,-3.2045,-3.2122,-3.2122,-3.2123]}]]